Wind_Speed
32 31 30 28 27 26 25 26 25 25 25 25 24 23 23 22 22 22 21 20 20 20 19 19 19 21 22 24 25 28 27 26 26 24 23 22 22 21 20 19 17 16 15
34 33 31 29 28 27 26 26 25 25 25 24 24 23 23 22 22 22 21 21 21 20 20 19 20 21 22 23 24 25 28 29 29 28 27 25 24 23 22 21 21 19 18
35 34 33 29 28 27 26 25 24 25 24 24 23 23 22 22 21 21 20 20 19 19 18 18 18 19 20 21 23 25 27 28 29 30 30 29 27 26 24 23 23 22 21
33 32 30 27 26 25 25 24 24 24 23 23 23 22 21 21 20 19 18 17 17 17 16 16 17 17 19 20 22 23 26 29 29 31 32 31 30 29 28 26 25 24 23
30 29 29 25 23 23 23 23 23 23 23 23 22 22 21 20 19 18 17 16 15 15 15 15 15 16 17 18 20 22 25 27 29 30 32 33 32 32 31 29 28 26 25
26 25 26 24 22 21 22 22 23 23 23 23 22 22 21 21 20 18 17 15 14 14 14 14 14 15 16 17 19 21 23 26 28 30 31 33 34 33 33 32 31 30 28
22 22 23 23 22 21 21 22 23 23 23 23 23 23 22 22 21 20 18 16 15 14 14 15 15 15 16 17 19 21 23 25 27 30 31 33 34 35 34 34 34 33 32
20 21 22 23 22 23 23 23 24 24 24 25 25 24 24 23 23 21 20 18 17 16 16 16 16 17 17 18 19 21 23 25 27 29 31 33 35 36 36 36 36 36 35
22 22 22 23 23 24 24 25 26 26 27 27 27 27 26 25 25 24 22 21 20 18 17 17 17 18 19 19 20 21 23 25 27 29 31 33 34 35 36 37 36 37 37
26 25 25 25 25 26 26 27 27 28 29 29 29 29 29 27 27 26 25 23 22 21 19 19 19 20 20 20 20 22 24 25 27 29 31 33 34 35 36 36 37 38 38
30 29 29 29 29 29 29 29 30 31 31 32 32 32 31 30 29 29 28 26 25 23 22 22 21 21 21 21 22 23 24 26 28 29 30 31 33 34 35 36 37 39 39
36 35 35 35 34 34 33 33 33 33 34 35 35 35 34 33 32 31 30 29 28 27 25 24 23 23 23 23 23 23 24 26 28 29 30 30 32 33 35 35 36 38 39
43 42 42 42 41 40 39 38 37 37 38 38 38 38 37 36 35 33 32 31 30 29 28 27 25 24 24 24 24 24 24 25 26 28 29 30 31 32 33 34 35 36 38
49 49 49 48 47 46 45 44 43 42 42 42 42 41 41 39 38 36 35 33 32 31 30 29 27 26 25 25 25 24 24 24 25 27 28 29 30 31 33 33 35 35 37
56 55 55 55 54 53 52 50 49 48 47 46 46 45 44 43 42 40 38 36 34 32 31 30 29 27 26 25 24 24 24 23 24 25 26 28 29 29 30 32 33 34 35
60 60 61 60 60 59 58 57 56 55 53 52 51 49 48 47 45 43 41 38 36 34 31 31 30 28 27 25 24 24 24 23 24 25 25 26 27 28 30 30 30 31 32
58 61 62 64 64 64 63 62 61 60 59 58 56 55 53 51 49 47 45 42 39 36 33 31 31 29 28 26 25 24 24 23 23 24 24 25 26 27 29 29 29 29 29
50 54 59 63 65 67 67 67 66 66 65 64 62 60 58 56 53 50 48 45 42 39 36 33 32 31 29 27 26 24 24 23 23 23 24 25 26 27 28 28 29 28 28
41 45 49 54 60 65 68 69 70 70 69 68 67 65 62 61 58 55 52 49 45 42 38 35 33 32 30 28 26 25 24 23 23 23 24 24 25 26 27 27 28 28 28
38 38 41 44 49 55 61 67 71 72 72 72 71 69 66 63 60 58 55 52 48 45 41 37 35 33 31 29 27 26 24 23 23 23 23 24 25 27 28 28 28 28 28
40 38 37 38 40 43 47 53 61 66 70 72 73 72 69 66 62 59 56 53 50 47 43 39 36 34 31 29 28 26 25 24 23 23 23 24 25 26 27 27 28 28 28
42 41 39 37 37 38 39 41 45 53 59 65 69 71 70 68 64 61 57 54 51 48 44 41 38 35 32 30 28 26 25 23 23 22 23 24 25 26 26 27 27 28 28
44 42 41 40 38 37 37 37 38 40 45 52 59 64 67 68 65 62 59 55 51 48 45 42 39 36 33 30 28 26 25 23 22 22 22 23 24 25 26 26 27 28 27
43 43 42 41 40 38 37 35 34 34 36 40 46 53 58 61 62 61 59 55 52 48 44 42 39 37 34 31 28 26 25 24 22 21 22 23 23 24 26 26 26 25 25
41 41 42 40 39 38 37 35 33 32 31 32 36 42 48 52 55 58 57 54 51 48 45 42 39 36 34 31 28 26 24 23 22 22 22 22 23 23 23 23 24 24 24
38 38 40 40 39 38 36 34 33 30 30 30 31 34 39 44 48 51 53 53 50 48 45 42 39 36 33 31 28 26 24 23 22 22 22 22 22 22 21 21 21 22 21
Wind_Direction
259 259 259 259 259 260 261 262 262 263 262 262 262 262 262 264 265 268 269 269 269 271 271 271 267 265 266 263 257 248 241 237 235 232 230 228 227 226 226 225 225 224 223
258 256 256 257 256 256 259 261 263 263 261 260 260 260 261 262 263 264 266 267 268 269 269 269 271 272 269 265 262 255 248 241 237 235 233 232 230 229 228 227 227 228 228
257 255 256 256 255 254 257 259 261 261 260 259 258 258 258 260 261 261 262 264 266 268 269 268 270 272 270 267 262 258 254 246 240 237 235 234 233 232 230 229 228 230 231
253 252 251 252 251 251 253 255 256 256 255 255 255 255 256 257 257 258 259 261 263 266 268 270 271 271 270 267 262 257 256 249 245 240 238 236 236 234 233 231 231 231 232
247 244 246 247 248 249 251 252 252 251 251 250 251 252 251 252 252 254 255 256 260 264 267 270 272 272 271 269 265 261 258 255 250 246 241 239 237 235 234 234 232 232 232
244 243 243 246 250 250 251 251 249 247 246 246 246 246 246 246 247 249 251 252 256 261 266 271 274 275 274 272 268 264 261 257 254 251 247 243 240 237 236 235 235 234 233
246 245 248 249 250 251 251 249 246 244 244 243 243 242 242 243 245 246 247 250 254 259 266 273 278 279 278 276 271 267 264 261 256 253 251 248 243 238 237 237 237 236 235
257 252 252 251 251 251 252 250 246 243 243 242 241 241 241 243 244 244 246 250 255 260 266 272 277 280 279 278 275 271 266 264 260 256 253 252 247 242 239 238 238 238 237
267 261 257 254 253 254 253 250 247 244 242 241 241 240 241 243 244 244 247 251 254 259 265 272 277 280 280 280 279 276 271 266 263 260 255 252 249 246 243 240 238 238 238
273 265 258 257 257 258 256 252 249 246 242 240 241 241 242 243 246 247 247 250 254 258 264 271 276 279 281 281 281 278 274 269 266 262 259 255 251 248 246 243 242 241 240
271 267 261 257 257 257 257 254 251 248 244 241 240 241 242 243 245 249 251 251 255 259 265 270 275 279 281 283 284 282 277 272 268 264 260 257 253 250 247 244 243 241 240
268 265 260 257 256 255 255 253 251 249 246 244 242 242 241 242 244 247 252 255 257 260 264 268 272 276 280 284 287 286 282 275 268 265 261 258 254 250 248 245 244 243 241
264 261 259 257 255 254 253 252 250 249 247 245 244 243 242 242 243 244 248 253 257 260 264 267 271 273 277 282 286 288 286 279 270 266 262 258 254 251 248 246 246 244 242
262 259 257 254 252 251 250 250 249 248 247 246 244 243 243 242 243 244 246 249 254 258 263 267 271 272 275 279 284 286 287 283 274 267 263 259 254 250 247 247 245 243 241
261 257 255 253 250 249 247 247 247 245 245 245 244 244 244 243 243 244 245 247 250 254 260 265 268 270 273 277 281 284 285 284 276 268 263 258 253 248 245 244 243 242 240
260 257 254 252 250 248 246 245 244 244 243 244 244 244 244 243 243 244 244 245 247 250 255 260 264 268 271 275 279 282 284 283 277 268 262 256 251 248 243 242 242 241 240
259 256 253 251 249 248 246 245 243 242 242 242 242 242 243 242 242 243 244 244 246 247 250 254 260 264 269 274 277 281 283 282 278 269 262 254 249 248 243 242 241 240 240
262 257 253 249 247 246 245 244 243 241 240 240 240 240 241 241 241 242 242 243 244 245 247 249 255 260 266 270 274 279 282 282 278 269 261 255 250 246 243 242 240 240 240
267 262 257 253 249 246 244 243 243 241 240 239 239 239 239 239 240 240 241 242 243 244 245 247 250 256 261 266 270 274 278 279 276 269 261 256 249 244 241 241 241 241 242
269 265 261 257 254 251 248 244 242 242 241 239 238 238 238 238 238 239 239 240 241 242 244 245 247 251 256 261 265 269 272 275 273 267 260 255 249 244 243 242 241 242 245
268 265 262 259 256 254 252 250 247 244 242 241 239 238 237 237 236 236 237 238 239 239 241 243 245 248 252 257 260 264 267 271 270 265 259 254 248 245 244 243 243 245 246
264 261 260 257 256 255 254 253 251 249 246 243 241 239 237 236 236 235 235 235 236 237 238 240 242 244 248 252 255 259 263 266 265 262 256 252 248 246 244 243 245 247 247
262 258 256 254 253 252 252 253 253 252 249 246 243 240 238 236 235 234 233 232 233 233 234 236 237 240 244 247 251 254 257 260 259 257 254 252 249 245 245 244 245 247 248
261 256 253 250 249 249 249 250 252 252 250 248 245 241 238 236 234 233 231 230 230 230 230 231 233 235 239 243 246 250 252 254 253 253 251 248 247 246 245 246 247 248 248
260 254 249 247 244 244 244 245 247 249 248 247 245 241 238 234 232 231 229 227 226 226 226 227 229 232 234 239 242 245 247 248 247 248 248 246 246 245 245 244 245 246 246
258 252 247 243 240 239 239 240 242 244 245 245 243 239 234 231 229 227 226 224 223 222 223 224 226 228 230 233 236 239 242 242 243 245 245 243 242 242 241 242 243 243 242
Height
5848 5849 5849 5849 5850 5850 5851 5852 5853 5853 5854 5854 5855 5855 5856 5857 5857 5858 5858 5858 5859 5859 5860 5860 5861 5861 5862 5864 5865 5867 5869 5871 5873 5875 5877 5879 5881 5883 5885 5887 5889 5891 5892
5838 5839 5840 5841 5842 5843 5844 5845 5846 5847 5847 5848 5849 5849 5850 5851 5852 5852 5853 5853 5854 5854 5855 5856 5856 5856 5857 5858 5859 5861 5863 5865 5867 5870 5872 5875 5877 5879 5881 5883 5885 5887 5889
5827 5830 5832 5833 5834 5835 5837 5838 5840 5840 5841 5842 5843 5843 5844 5845 5846 5847 5848 5849 5849 5850 5850 5851 5851 5851 5852 5852 5853 5855 5857 5859 5861 5864 5867 5869 5872 5874 5876 5878 5881 5883 5885
5817 5820 5823 5825 5827 5828 5830 5832 5833 5834 5835 5836 5837 5838 5839 5840 5841 5842 5843 5844 5844 5845 5845 5846 5846 5846 5847 5847 5848 5849 5851 5853 5855 5857 5860 5863 5866 5869 5871 5874 5876 5878 5881
5808 5812 5816 5818 5820 5822 5824 5825 5827 5828 5829 5830 5831 5832 5833 5835 5836 5837 5838 5839 5840 5840 5841 5841 5841 5841 5841 5842 5842 5843 5845 5847 5848 5851 5854 5856 5859 5862 5865 5868 5871 5874 5876
5803 5805 5809 5812 5813 5815 5817 5819 5820 5822 5823 5824 5825 5827 5828 5830 5831 5833 5834 5835 5836 5837 5837 5837 5837 5837 5836 5836 5837 5838 5839 5841 5843 5845 5847 5850 5852 5856 5859 5862 5865 5868 5871
5798 5801 5803 5805 5807 5808 5810 5812 5814 5815 5817 5818 5820 5821 5823 5825 5826 5828 5830 5831 5832 5832 5833 5833 5833 5832 5832 5831 5831 5832 5833 5835 5836 5838 5841 5843 5845 5848 5851 5855 5859 5862 5865
5795 5796 5798 5799 5800 5802 5804 5805 5807 5808 5810 5812 5813 5815 5817 5820 5821 5823 5824 5826 5827 5828 5828 5828 5828 5827 5827 5826 5826 5826 5827 5828 5829 5831 5833 5836 5838 5840 5844 5847 5851 5855 5858
5790 5790 5791 5792 5794 5795 5796 5798 5799 5801 5803 5805 5807 5809 5811 5813 5815 5817 5819 5820 5822 5822 5823 5823 5823 5822 5821 5820 5820 5820 5820 5821 5822 5823 5825 5828 5830 5833 5836 5840 5843 5847 5851
5784 5784 5785 5785 5787 5788 5789 5790 5791 5793 5795 5797 5800 5802 5804 5806 5808 5810 5813 5815 5816 5816 5817 5817 5817 5817 5816 5815 5814 5813 5813 5814 5815 5816 5817 5820 5822 5825 5829 5832 5836 5839 5843
5777 5777 5777 5778 5779 5780 5780 5781 5783 5784 5787 5789 5792 5794 5796 5798 5800 5803 5805 5808 5809 5810 5811 5811 5811 5811 5810 5809 5808 5807 5807 5807 5807 5808 5810 5812 5814 5817 5820 5823 5827 5830 5834
5767 5767 5768 5768 5769 5770 5771 5772 5774 5776 5778 5780 5783 5786 5788 5791 5793 5796 5798 5799 5802 5803 5804 5805 5805 5805 5804 5803 5802 5801 5800 5800 5800 5801 5802 5804 5806 5809 5812 5815 5819 5822 5826
5754 5755 5756 5757 5758 5759 5760 5761 5763 5765 5767 5770 5773 5776 5779 5782 5785 5788 5790 5792 5794 5795 5797 5798 5798 5798 5798 5797 5795 5794 5793 5792 5792 5793 5794 5796 5798 5801 5803 5807 5810 5813 5817
5738 5739 5740 5742 5744 5745 5747 5749 5751 5753 5756 5758 5761 5764 5768 5771 5775 5778 5781 5784 5786 5787 5789 5790 5790 5791 5791 5790 5789 5788 5786 5785 5785 5786 5787 5788 5790 5793 5796 5798 5801 5804 5808
5719 5720 5722 5724 5726 5729 5732 5734 5737 5740 5743 5746 5749 5752 5756 5759 5763 5767 5771 5774 5778 5780 5781 5781 5782 5784 5784 5783 5782 5781 5780 5779 5779 5779 5780 5781 5783 5785 5788 5791 5794 5797 5800
5697 5699 5701 5703 5706 5710 5713 5717 5721 5724 5728 5731 5735 5739 5742 5746 5751 5755 5760 5764 5767 5771 5773 5773 5774 5775 5776 5776 5775 5774 5773 5773 5772 5772 5773 5774 5776 5778 5781 5784 5786 5789 5792
5673 5675 5678 5681 5685 5689 5693 5697 5701 5706 5710 5715 5719 5724 5728 5733 5737 5742 5747 5752 5756 5760 5764 5765 5766 5767 5768 5769 5768 5767 5767 5766 5766 5766 5767 5768 5770 5772 5774 5777 5779 5782 5785
5652 5653 5655 5658 5662 5666 5671 5676 5681 5686 5691 5696 5702 5707 5713 5718 5723 5728 5734 5739 5744 5749 5753 5756 5758 5759 5760 5761 5761 5761 5760 5760 5759 5759 5760 5761 5763 5765 5768 5771 5773 5776 5779
5634 5634 5635 5637 5640 5643 5648 5653 5659 5664 5670 5676 5682 5689 5695 5702 5708 5714 5720 5726 5731 5737 5742 5746 5749 5750 5752 5753 5754 5754 5754 5753 5753 5753 5754 5755 5757 5759 5762 5765 5768 5770 5773
5618 5618 5618 5619 5621 5623 5627 5631 5636 5642 5648 5655 5662 5670 5677 5685 5692 5699 5705 5712 5718 5725 5731 5736 5739 5742 5744 5745 5746 5747 5747 5747 5747 5747 5748 5749 5751 5753 5756 5759 5762 5764 5767
5602 5603 5603 5604 5605 5607 5610 5612 5616 5621 5627 5634 5641 5649 5658 5667 5675 5683 5691 5698 5705 5712 5719 5725 5729 5733 5735 5737 5739 5740 5740 5740 5740 5741 5742 5743 5745 5747 5750 5752 5755 5758 5760
5585 5586 5588 5590 5591 5593 5595 5597 5600 5604 5609 5614 5621 5629 5639 5649 5658 5667 5676 5684 5692 5700 5707 5714 5719 5723 5727 5729 5731 5732 5733 5734 5734 5735 5736 5737 5739 5741 5744 5746 5749 5751 5754
5566 5569 5572 5575 5578 5580 5582 5585 5587 5590 5593 5598 5603 5611 5620 5630 5641 5651 5661 5670 5679 5687 5696 5703 5709 5714 5717 5720 5723 5725 5726 5727 5728 5729 5730 5731 5733 5735 5738 5740 5742 5745 5747
5547 5551 5555 5559 5563 5567 5570 5573 5575 5578 5581 5584 5589 5595 5603 5613 5624 5635 5646 5657 5667 5676 5684 5692 5699 5704 5708 5712 5715 5717 5719 5720 5722 5723 5725 5726 5728 5730 5732 5734 5736 5739 5741
5529 5533 5538 5543 5548 5553 5557 5561 5564 5568 5570 5573 5577 5582 5589 5599 5610 5621 5633 5644 5655 5664 5673 5681 5688 5694 5699 5703 5707 5710 5712 5714 5715 5717 5719 5721 5722 5724 5726 5728 5730 5733 5735
5513 5517 5522 5528 5534 5540 5545 5550 5554 5558 5561 5564 5567 5572 5578 5587 5596 5607 5619 5631 5643 5653 5662 5671 5678 5684 5690 5695 5699 5702 5705 5708 5709 5711 5713 5715 5717 5719 5721 5723 5725 5727 5730